Weather Roundup
Issued by NWS

Home | Current Version | Previous Version | Graphics & Text | Print | Product List | Glossary Off
Versions: 1 2 3 4 5 6 7 8 9 10 11 12 13 14 15 16 17 18 19 20 21 22 23 24 25 26 27 28 29 30 31 32 33 34 35 36 37 38 39 40 41 42 43 44 45 46 47 48 49 50

000
NZUS93 KARX 281610
HRRWXR

CURRENT HOURLY OBSERVATIONS ACROSS
MUCH OF THE UPPER MISSISSIPPI VALLEY
NATIONAL WEATHER SERVICE LA CROSSE WI
1000 AM CST FRI NOV 28 2014


...SOUTHEAST MINNESOTA...


CITY           SKY/WX    TMP DP  RH WIND       PRES   REMARKS
ROCHESTER      MOSUNNY   17  10  74 S20       29.94F WCI   1
ROCHESTER/MAYO FAIR      19   9  65 SE16G24   29.96F WCI   4
WINONA         MOSUNNY   21  12  68 SE8       30.04S WCI  12
AUSTIN         PTSUNNY   18  10  73 SE13      29.92F WCI   4
ALBERT LEA     CLOUDY    18  12  79 S12       29.92F WCI   5
DODGE CENTER   PTSUNNY   18  12  79 S17       29.92F WCI   2
PRESTON        MOSUNNY   17  10  74 S17       29.97S WCI   1
OWATONNA       PTSUNNY   18  10  73 SE14      29.93S WCI   4
FARIBAULT      PTSUNNY   18  10  73 SE8       29.95R WCI   7
$$

...ELSEWHERE IN MINNESOTA...


CITY           SKY/WX    TMP DP  RH WIND       PRES   REMARKS
MINNEAPOLIS    CLOUDY    16   9  74 E9        30.00R WCI   4
INTNL FALLS    CLOUDY     9   1  70 SE7       29.98F WCI  -2
DULUTH         LGT SNOW  12   8  84 SE8       29.98F VSB 3/4 WCI   0
RED WING       MOSUNNY   21  12  68 SE9       29.99F WCI  11
REDWOOD FALLS  CLOUDY    16  10  77 E6        29.92R WCI   7
MANKATO        CLOUDY    18   9  68 SE12      29.92S WCI   5
WORTHINGTON    CLOUDY    19  18  93 S9        29.83F WCI   9
FAIRMONT       CLOUDY    18  12  79 S16       29.89F WCI   3
$$

...SOUTHWEST WISCONSIN...


CITY           SKY/WX    TMP DP  RH WIND       PRES   REMARKS
LA CROSSE      MOSUNNY   21  10  62 SE10      30.05F WCI  10
PRAIRIE DU CHI MOSUNNY   22  10  62 E7        30.06F WCI  13
BOSCOBEL       MOSUNNY   22  10  60 VRB5      30.08F WCI  16
LONE ROCK      MOSUNNY   22  10  60 SE8       30.10F WCI  12
PLATTEVILLE    MOSUNNY   20  13  73 SE13      30.06F WCI   8
FORT MC COY    CLOUDY    20  12  71 S8        30.06F WCI  10
CAMP DOUGLAS   PTSUNNY   17  15  91 SE12      30.05F WCI   4
VIROQUA        FAIR      19  11  72 SE12      30.00F WCI   7
WIS DELLS      CLOUDY    19  11  74 SE12      30.08F WCI   6
$$

...ELSEWHERE IN WISCONSIN...


CITY           SKY/WX    TMP DP  RH WIND       PRES   REMARKS
MILWAUKEE      CLOUDY    20  14  77 S9        30.20S WCI   9
MADISON        CLOUDY    19  12  74 S12       30.12F WCI   7
GREEN BAY      LGT SNOW  16  12  84 S7        30.17F FOG     WCI   6
EAU CLAIRE     CLOUDY    14   8  77 SE6       30.04S WCI   5
BLACK RVR FLS  CLOUDY    18  11  76 SE5       30.05F WCI  11
MEDFORD        CLOUDY    11   7  82 SE6       30.01F WCI   2
WAUSAU         CLOUDY    11   7  84 SE8       30.07F WCI  -1
WIS RAPIDS     CLOUDY    14   9  80 SE10      30.09F WCI   1
MARSHFIELD     CLOUDY    13   9  84 SE12      30.03F WCI  -1
RICE LAKE      FLURRIES  13   9  81 SE9       30.04S WCI   1
$$

...NORTHEAST IOWA...


CITY           SKY/WX    TMP DP  RH WIND       PRES   REMARKS
DECORAH        MOSUNNY   19  10  68 S12G20    29.99F WCI   7
MASON CITY     CLOUDY    17  12  80 SE20      29.92F WCI   1
CHARLES CITY   PTSUNNY   18  12  79 SE12      29.97F WCI   5
OELWEIN        PTSUNNY   19  14  79 S20       29.99F WCI   4
$$

...ELSEWHERE IN IOWA...


CITY           SKY/WX    TMP DP  RH WIND       PRES   REMARKS
DES MOINES     PTSUNNY   30  23  75 S9        29.94F WCI  22
IOWA CITY      PTSUNNY   22  17  81 SE12      30.06F WCI  10
FORT DODGE     CLOUDY    21  16  79 SE6       29.91S WCI  14
$$

...NORTHERN ILLINOIS...


CITY           SKY/WX    TMP DP  RH WIND       PRES   REMARKS
CHICAGO-OHARE  PTSUNNY   22  15  75 S16       30.21F WCI   8
CHICAGO-MIDWAY CLOUDY    25  15  66 S12       30.23F WCI  14
MOLINE         PTSUNNY   24  17  74 S15G22    30.09F WCI  11
ROCKFORD       PTSUNNY   21  12  68 SE16      30.16F WCI   7
PEORIA         MOSUNNY   29  21  72 S20       30.15F WCI  16
$$

NOTE: "FAIR" INDICATES FEW OR NO CLOUDS BELOW 12,000 FEET WITH NO
SIGNIFICANT WEATHER AND/OR OBSTRUCTIONS TO VISIBILITY. WIND
SPEEDS ARE IN MILES-PER-HOUR.



USA.gov is the U.S. government's official web portal to all federal, state and local government web resources and services.